14-03-2023, 00:00:09,    292,    4.1,    5.1,   0.00,   0.00,  987.7,    0.0, -999.0
14-03-2023, 00:00:19,    310,    5.0,    5.2,   0.00,   0.00,  987.7,    0.0, -999.0
14-03-2023, 00:00:29,    342,    3.6,    5.1,   0.00,   0.00,  987.7,    0.0, -999.0
14-03-2023, 00:00:39,    329,    3.1,    5.1,   0.00,   0.00,  987.7,    0.1, -999.0
14-03-2023, 00:00:49,    328,    3.0,    5.1,   0.00,   0.00,  987.8,    0.0, -999.0
14-03-2023, 00:00:59,    358,    1.7,    5.1,   0.00,   0.00,  987.7,    0.0, -999.0
14-03-2023, 00:01:09,    338,    2.7,    5.0,   0.00,   0.00,  987.7,    0.0, -999.0
14-03-2023, 00:01:19,    336,    5.0,    5.1,   0.00,   0.00,  987.7,    0.0, -999.0
14-03-2023, 00:01:29,    327,    2.4,    5.0,   0.00,   0.00,  987.7,    0.0, -999.0
14-03-2023, 00:01:39,    323,    2.4,    5.1,   0.00,   0.00,  987.7,    0.1, -999.0
14-03-2023, 00:01:49,    328,    2.4,    5.0,   0.00,   0.00,  987.7,    0.1, -999.0
14-03-2023, 00:01:59,    337,    1.8,    5.0,   0.00,   0.00,  987.7,    0.0, -999.0
14-03-2023, 00:02:09,    317,    2.6,    5.1,   0.00,   0.00,  987.8,    0.0, -999.0
14-03-2023, 00:02:19,    320,    2.3,    5.1,   0.00,   0.00,  987.8,    0.0, -999.0
14-03-2023, 00:02:29,    313,    3.6,    5.0,   0.00,   0.00,  987.8,    0.1, -999.0
14-03-2023, 00:02:39,    310,    1.3,    5.1,   0.00,   0.00,  987.8,    0.0, -999.0
14-03-2023, 00:02:49,    329,    1.4,    5.0,   0.00,   0.00,  987.8,    0.0, -999.0
14-03-2023, 00:02:59,    335,    1.5,    5.0,   0.00,   0.00,  987.8,    0.0, -999.0
14-03-2023, 00:03:09,    326,    3.8,    5.1,   0.00,   0.00,  987.8,    0.0, -999.0
14-03-2023, 00:03:19,    329,    2.3,    5.1,   0.00,   0.00,  987.9,    0.0, -999.0
14-03-2023, 00:03:29,    330,    2.6,    5.0,   0.00,   0.00,  987.8,    0.0, -999.0
14-03-2023, 00:03:39,    309,    2.4,    4.9,   0.00,   0.00,  987.9,    0.2, -999.0
14-03-2023, 00:03:49,    323,    6.5,    5.0,   0.00,   0.00,  987.9,    0.0, -999.0
14-03-2023, 00:03:59,    316,    7.0,    5.0,   0.00,   0.00,  987.9,    0.0, -999.0
14-03-2023, 00:04:09,    333,    2.4,    4.9,   0.00,   0.00,  987.8,    0.0, -999.0
14-03-2023, 00:04:19,    344,    3.9,    5.0,   0.00,   0.00,  987.9,    0.0, -999.0
14-03-2023, 00:04:29,    315,    4.7,    5.0,   0.00,   0.00,  987.9,    0.0, -999.0
14-03-2023, 00:04:39,    349,    4.6,    5.0,   0.00,   0.00,  987.9,    0.0, -999.0
14-03-2023, 00:04:49,    300,    4.0,    5.0,   0.00,   0.00,  987.9,    0.1, -999.0
14-03-2023, 00:04:59,    329,    5.3,    4.9,   0.00,   0.01,  987.9,    0.1, -999.0
14-03-2023, 00:05:09,    320,    3.1,    5.0,   0.00,   0.00,  987.9,    0.1, -999.0
14-03-2023, 00:05:19,    295,    1.9,    5.0,   0.00,   0.00,  987.8,    0.0, -999.0
14-03-2023, 00:05:28,    327,    5.7,    5.0,   0.00,   0.00,  987.9,    0.1, -999.0
14-03-2023, 00:05:39,    302,    4.7,    5.0,   0.00,   0.00,  987.9,    0.0, -999.0
14-03-2023, 00:05:49,    321,    3.8,    5.0,   0.00,   0.00,  987.9,    0.0, -999.0
14-03-2023, 00:05:59,    337,    4.6,    5.0,   0.00,   0.01,  987.9,    0.1, -999.0
14-03-2023, 00:06:08,    356,    3.9,    5.0,   0.00,   0.00,  987.9,    0.1, -999.0
14-03-2023, 00:06:19,    356,    1.6,    5.0,   0.00,   0.00,  987.9,    0.1, -999.0
14-03-2023, 00:06:29,    340,    3.6,    5.0,   0.00,   0.00,  987.9,    0.1, -999.0
14-03-2023, 00:06:38,    331,    2.5,    4.9,   0.00,   0.00,  987.9,    0.0, -999.0
14-03-2023, 00:06:48,    331,    3.8,    5.0,   0.00,   0.01,  987.9,    0.0, -999.0
14-03-2023, 00:06:59,      0,    3.2,    5.0,   0.00,   0.00,  987.9,    0.1, -999.0
14-03-2023, 00:07:09,    319,    5.2,    4.8,   0.00,   0.00,  987.9,    0.0, -999.0
14-03-2023, 00:07:18,    312,    5.1,    4.9,   0.00,   0.01,  987.9,    0.1, -999.0
14-03-2023, 00:07:28,    297,    3.7,    4.9,   0.00,   0.00,  987.9,    0.0, -999.0
14-03-2023, 00:07:39,    338,    3.7,    4.9,   0.00,   0.01,  987.9,    0.0, -999.0
14-03-2023, 00:07:48,    340,    2.3,    5.0,   0.00,   0.00,  987.9,    0.0, -999.0
14-03-2023, 00:07:58,    334,    1.3,    4.9,   0.00,   0.00,  987.9,    0.0, -999.0
14-03-2023, 00:08:08,    313,    6.5,    4.9,   0.00,   0.01,  988.0,    0.0, -999.0
14-03-2023, 00:08:18,    325,    5.1,    4.8,   0.00,   0.00,  987.9,    0.0, -999.0
14-03-2023, 00:08:28,    340,    6.9,    4.9,   0.00,   0.00,  987.9,    0.0, -999.0
14-03-2023, 00:08:38,    338,    3.9,    4.8,   0.00,   0.01,  987.9,    0.1, -999.0
14-03-2023, 00:08:49,    322,    6.2,    4.9,   0.00,   0.00,  988.0,    0.1, -999.0
14-03-2023, 00:08:58,    331,    6.3,    4.9,   0.00,   0.00,  988.0,    0.0, -999.0
14-03-2023, 00:09:08,    346,    5.7,    4.9,   0.00,   0.01,  988.0,    0.0, -999.0
14-03-2023, 00:09:18,    346,    6.4,    4.9,   0.00,   0.00,  988.0,    0.0, -999.0
14-03-2023, 00:09:28,    343,    6.1,    4.9,   0.00,   0.00,  988.0,    0.0, -999.0
14-03-2023, 00:09:38,    322,    5.3,    4.9,   0.00,   0.01,  988.0,    0.0, -999.0
14-03-2023, 00:09:48,      0,    1.5,    5.0,   0.00,   0.00,  988.0,    0.0, -999.0
14-03-2023, 00:09:58,    329,    2.4,    4.9,   0.00,   0.00,  988.0,    0.0, -999.0
14-03-2023, 00:10:08,    343,    3.8,    4.9,   0.00,   0.00,  988.0,    0.0, -999.0
14-03-2023, 00:10:18,    331,    3.1,    4.9,   0.00,   0.01,  988.0,    0.0, -999.0
14-03-2023, 00:10:28,    349,    2.6,    4.9,   0.00,   0.00,  988.0,    0.0, -999.0
14-03-2023, 00:10:38,    340,    1.7,    4.9,   0.00,   0.00,  988.0,    0.0, -999.0
14-03-2023, 00:10:48,    337,    1.7,    4.9,   0.00,   0.00,  988.0,    0.1, -999.0
14-03-2023, 00:10:58,    325,    2.2,    4.9,   0.00,   0.00,  988.0,    0.0, -999.0
14-03-2023, 00:11:08,    328,    0.9,    4.8,   0.00,   0.01,  988.0,    0.0, -999.0
14-03-2023, 00:11:18,    333,    2.0,    4.9,   0.00,   0.00,  988.0,    0.1, -999.0
14-03-2023, 00:11:28,    334,    2.2,    4.9,   0.00,   0.00,  988.0,    0.0, -999.0
14-03-2023, 00:11:38,    328,    0.7,    4.9,   0.00,   0.00,  988.1,    0.0, -999.0
14-03-2023, 00:11:48,    301,    2.9,    4.8,   0.00,   0.00,  988.1,    0.0, -999.0
14-03-2023, 00:11:58,    326,    4.0,    4.8,   0.00,   0.00,  988.1,    0.0, -999.0
14-03-2023, 00:12:08,    354,    3.3,    4.8,   0.00,   0.00,  988.1,    0.1, -999.0
14-03-2023, 00:12:18,    326,    3.7,    4.8,   0.00,   0.00,  988.1,    0.1, -999.0
14-03-2023, 00:12:28,    342,    3.1,    4.8,   0.00,   0.00,  988.1,    0.1, -999.0
14-03-2023, 00:12:38,    311,    2.8,    4.8,   0.00,   0.00,  988.1,    0.0, -999.0
14-03-2023, 00:12:48,    339,    1.6,    4.8,   0.00,   0.01,  988.1,    0.0, -999.0
14-03-2023, 00:12:58,    310,    1.6,    4.8,   0.00,   0.00,  988.1,    0.1, -999.0
14-03-2023, 00:13:08,    318,    1.0,    4.8,   0.00,   0.00,  988.1,    0.1, -999.0
14-03-2023, 00:13:18,    298,    1.0,    4.8,   0.00,   0.00,  988.1,    0.0, -999.0
14-03-2023, 00:13:28,    299,    1.2,    4.8,   0.00,   0.00,  988.1,    0.1, -999.0
14-03-2023, 00:13:38,    310,    1.9,    4.8,   0.00,   0.00,  988.1,    0.0, -999.0
14-03-2023, 00:13:48,    305,    1.7,    4.8,   0.00,   0.00,  988.1,    0.1, -999.0
14-03-2023, 00:13:58,    344,    1.7,    4.9,   0.00,   0.00,  988.1,    0.0, -999.0
14-03-2023, 00:14:08,    337,    1.0,    4.8,   0.00,   0.00,  988.1,    0.0, -999.0
14-03-2023, 00:14:18,    324,    0.6,    4.9,   0.00,   0.00,  988.1,    0.0, -999.0
14-03-2023, 00:14:28,    333,    1.2,    4.8,   0.00,   0.01,  988.1,    0.0, -999.0
14-03-2023, 00:14:38,    328,    2.9,    4.8,   0.00,   0.00,  988.1,    0.0, -999.0
14-03-2023, 00:14:48,    294,    3.6,    4.8,   0.00,   0.00,  988.1,    0.0, -999.0
14-03-2023, 00:14:58,    294,    1.8,    4.8,   0.00,   0.00,  988.1,    0.0, -999.0
14-03-2023, 00:15:08,    294,    1.0,    4.7,   0.00,   0.00,  988.1,    0.1, -999.0
14-03-2023, 00:15:18,    301,    1.3,    4.7,   0.00,   0.00,  988.1,    0.0, -999.0
14-03-2023, 00:15:28,    346,    2.2,    4.7,   0.00,   0.01,  988.2,    0.1, -999.0
14-03-2023, 00:15:38,    325,    1.6,    4.8,   0.00,   0.00,  988.1,    0.0, -999.0
14-03-2023, 00:15:48,    284,    1.1,    4.8,   0.00,   0.00,  988.1,    0.0, -999.0
14-03-2023, 00:15:58,    284,    0.1,    4.8,   0.00,   0.00,  988.1,    0.0, -999.0
14-03-2023, 00:16:08,    333,    1.0,    4.7,   0.00,   0.00,  988.2,    0.0, -999.0
14-03-2023, 00:16:17,    283,    1.5,    4.8,   0.00,   0.01,  988.2,    0.0, -999.0
14-03-2023, 00:16:28,    284,    0.7,    4.6,   0.00,   0.00,  988.1,    0.0, -999.0
14-03-2023, 00:16:38,    358,    1.1,    4.8,   0.00,   0.00,  988.1,    0.0, -999.0
14-03-2023, 00:16:47,    324,    4.1,    4.8,   0.00,   0.00,  988.2,    0.0, -999.0
14-03-2023, 00:16:57,    297,    2.2,    4.7,   0.00,   0.00,  988.2,    0.0, -999.0
14-03-2023, 00:17:08,    353,    2.0,    4.8,   0.00,   0.00,  988.2,    0.3, -999.0
14-03-2023, 00:17:18,    310,    2.3,    4.8,   0.00,   0.01,  988.2,    0.0, -999.0
14-03-2023, 00:17:27,    345,    1.5,    4.8,   0.00,   0.00,  988.2,    0.2, -999.0
14-03-2023, 00:17:37,    301,    3.4,    4.8,   0.00,   0.00,  988.2,    0.0, -999.0
14-03-2023, 00:17:48,    341,    2.3,    4.8,   0.00,   0.00,  988.2,    0.1, -999.0
14-03-2023, 00:17:57,    293,    2.0,    4.9,   0.00,   0.00,  988.2,    0.1, -999.0
14-03-2023, 00:18:07,    328,    2.1,    4.8,   0.00,   0.00,  988.3,    0.3, -999.0
14-03-2023, 00:18:18,    317,    2.5,    4.8,   0.00,   0.01,  988.3,    0.0, -999.0
14-03-2023, 00:18:28,    295,    2.1,    4.8,   0.00,   0.00,  988.3,    0.0, -999.0
14-03-2023, 00:18:37,    283,    1.5,    4.8,   0.00,   0.00,  988.3,    0.1, -999.0
14-03-2023, 00:18:47,    300,    1.1,    4.8,   0.00,   0.00,  988.3,    0.0, -999.0
14-03-2023, 00:18:58,    297,    1.9,    5.0,   0.00,   0.00,  988.3,    0.0, -999.0
14-03-2023, 00:19:07,    332,    1.2,    4.8,   0.00,   0.00,  988.2,    0.1, -999.0
14-03-2023, 00:19:17,    339,    2.0,    4.8,   0.00,   0.01,  988.3,    0.0, -999.0
14-03-2023, 00:19:27,    298,    0.8,    4.9,   0.00,   0.00,  988.2,    0.0, -999.0
14-03-2023, 00:19:37,    299,    1.8,    4.9,   0.00,   0.00,  988.3,    0.0, -999.0
14-03-2023, 00:19:47,    299,    0.5,    4.8,   0.00,   0.00,  988.2,    0.0, -999.0
14-03-2023, 00:19:57,    299,    0.2,    4.8,   0.00,   0.00,  988.2,    0.0, -999.0
14-03-2023, 00:20:07,    296,    1.6,    4.8,   0.00,   0.00,  988.3,    0.1, -999.0
14-03-2023, 00:20:17,    330,    1.7,    4.8,   0.00,   0.00,  988.3,    0.1, -999.0
14-03-2023, 00:20:27,    292,    4.1,    4.8,   0.00,   0.00,  988.3,    0.0, -999.0
14-03-2023, 00:20:37,    312,    2.4,    4.7,   0.00,   0.00,  988.3,    0.0, -999.0
14-03-2023, 00:20:47,    349,    3.6,    4.9,   0.00,   0.00,  988.3,    0.1, -999.0
14-03-2023, 00:20:57,    340,    2.5,    4.8,   0.00,   0.01,  988.3,    0.0, -999.0
14-03-2023, 00:21:07,    321,    1.9,    4.7,   0.00,   0.00,  988.3,    0.0, -999.0
14-03-2023, 00:21:17,    329,    1.7,    4.8,   0.00,   0.00,  988.3,    0.1, -999.0
14-03-2023, 00:21:27,    324,    2.0,    4.8,   0.00,   0.00,  988.3,    0.0, -999.0
14-03-2023, 00:21:37,    306,    2.0,    4.8,   0.00,   0.00,  988.4,    0.1, -999.0
14-03-2023, 00:21:47,    311,    3.6,    4.8,   0.00,   0.00,  988.4,    0.0, -999.0
14-03-2023, 00:21:57,    343,    3.1,    4.8,   0.00,   0.00,  988.4,    0.0, -999.0
14-03-2023, 00:22:07,    320,    3.8,    4.8,   0.00,   0.00,  988.3,    0.1, -999.0
14-03-2023, 00:22:17,    329,    3.4,    4.8,   0.00,   0.00,  988.4,    0.0, -999.0
14-03-2023, 00:22:27,    308,    1.6,    4.8,   0.00,   0.00,  988.4,    0.0, -999.0
14-03-2023, 00:22:37,    302,    1.6,    4.8,   0.00,   0.00,  988.4,    0.0, -999.0
14-03-2023, 00:22:47,    311,    1.5,    4.8,   0.00,   0.00,  988.3,    0.0, -999.0
14-03-2023, 00:22:57,    310,    1.1,    4.9,   0.00,   0.00,  988.4,    0.0, -999.0
14-03-2023, 00:23:07,    312,    0.5,    4.9,   0.00,   0.00,  988.4,    0.0, -999.0
14-03-2023, 00:23:17,    344,    0.2,    4.8,   0.00,   0.00,  988.3,    0.1, -999.0
14-03-2023, 00:23:27,    344,    3.5,    4.8,   0.00,   0.00,  988.4,    0.0, -999.0
14-03-2023, 00:23:37,    334,    2.7,    4.8,   0.00,   0.00,  988.4,    0.0, -999.0
14-03-2023, 00:23:47,    337,    1.0,    4.7,   0.00,   0.00,  988.4,    0.1, -999.0
14-03-2023, 00:23:57,    333,    0.3,    4.8,   0.00,   0.00,  988.4,    0.0, -999.0
14-03-2023, 00:24:07,    332,    0.9,    4.8,   0.00,   0.00,  988.4,    0.0, -999.0
14-03-2023, 00:24:17,    331,    1.0,    4.8,   0.00,   0.00,  988.4,    0.0, -999.0
14-03-2023, 00:24:27,    332,    0.4,    4.9,   0.00,   0.00,  988.4,    0.0, -999.0
14-03-2023, 00:24:37,    324,    0.8,    4.9,   0.00,   0.00,  988.4,    0.0, -999.0
14-03-2023, 00:24:47,    332,    1.3,    4.8,   0.00,   0.00,  988.4,    0.0, -999.0
14-03-2023, 00:24:57,    332,    0.6,    4.8,   0.00,   0.00,  988.5,    0.1, -999.0
14-03-2023, 00:25:07,    332,    0.2,    4.8,   0.00,   0.00,  988.4,    0.0, -999.0
14-03-2023, 00:25:17,    332,    0.4,    4.8,   0.00,   0.00,  988.4,    0.0, -999.0
14-03-2023, 00:25:27,    332,    0.3,    4.8,   0.00,   0.00,  988.4,    0.1, -999.0
14-03-2023, 00:25:37,    332,    1.4,    4.8,   0.00,   0.00,  988.4,    0.1, -999.0
14-03-2023, 00:25:47,    328,    3.1,    4.8,   0.00,   0.00,  988.5,    0.0, -999.0
14-03-2023, 00:25:57,    282,    4.6,    4.8,   0.00,   0.00,  988.5,    0.1, -999.0
14-03-2023, 00:26:07,    342,    4.6,    4.8,   0.00,   0.00,  988.5,    0.0, -999.0
14-03-2023, 00:26:17,    322,    3.8,    4.8,   0.00,   0.00,  988.5,    0.1, -999.0
14-03-2023, 00:26:26,    314,    3.7,    4.9,   0.00,   0.00,  988.5,    0.2, -999.0
14-03-2023, 00:26:37,    262,    1.6,    4.9,   0.00,   0.00,  988.5,    0.1, -999.0
14-03-2023, 00:26:47,    312,    5.2,    4.8,   0.00,   0.00,  988.5,    0.1, -999.0
14-03-2023, 00:26:57,    313,    5.5,    4.7,   0.00,   0.00,  988.5,    0.0, -999.0
14-03-2023, 00:27:06,    349,    3.8,    4.9,   0.00,   0.00,  988.5,    0.0, -999.0
14-03-2023, 00:27:17,    325,    1.8,    4.9,   0.00,   0.00,  988.5,    0.0, -999.0
14-03-2023, 00:27:27,    315,    4.9,    4.9,   0.00,   0.00,  988.5,    0.1, -999.0
14-03-2023, 00:27:36,    315,    4.0,    4.9,   0.00,   0.00,  988.5,    0.0, -999.0
14-03-2023, 00:27:46,    308,    2.1,    4.9,   0.00,   0.00,  988.5,    0.0, -999.0
14-03-2023, 00:27:57,    325,    3.4,    4.8,   0.00,   0.00,  988.5,    0.0, -999.0
14-03-2023, 00:28:06,    339,    3.6,    4.9,   0.00,   0.00,  988.5,    0.1, -999.0
14-03-2023, 00:28:16,    310,    1.9,    4.9,   0.00,   0.00,  988.5,    0.0, -999.0
14-03-2023, 00:28:27,    336,    1.2,    4.9,   0.00,   0.00,  988.5,    0.0, -999.0
14-03-2023, 00:28:37,    332,    2.0,    4.9,   0.00,   0.00,  988.5,    0.1, -999.0
14-03-2023, 00:28:46,    290,    1.6,    4.9,   0.00,   0.00,  988.5,    0.1, -999.0
14-03-2023, 00:28:56,    291,    1.2,    4.9,   0.00,   0.00,  988.5,    0.0, -999.0
14-03-2023, 00:29:07,    292,    0.9,    4.9,   0.00,   0.00,  988.5,    0.0, -999.0
14-03-2023, 00:29:16,    293,    1.6,    4.9,   0.00,   0.00,  988.5,    0.2, -999.0
14-03-2023, 00:29:26,    293,    1.4,    5.0,   0.00,   0.00,  988.5,    0.0, -999.0
14-03-2023, 00:29:36,    293,    0.7,    4.9,   0.00,   0.00,  988.6,    0.1, -999.0
14-03-2023, 00:29:47,    293,    1.1,    5.0,   0.00,   0.00,  988.6,    0.1, -999.0
14-03-2023, 00:29:56,    293,    0.6,    4.9,   0.00,   0.00,  988.6,    0.0, -999.0
14-03-2023, 00:30:06,    291,    0.4,    4.9,   0.00,   0.00,  988.6,    0.0, -999.0
14-03-2023, 00:30:16,    291,    0.1,    4.9,   0.00,   0.00,  988.6,    0.0, -999.0
14-03-2023, 00:30:26,    296,    0.1,    4.8,   0.00,   0.00,  988.5,    0.1, -999.0
14-03-2023, 00:30:36,    323,    2.1,    4.9,   0.00,   0.00,  988.7,    0.0, -999.0
14-03-2023, 00:30:46,    322,    1.5,    4.9,   0.00,   0.00,  988.7,    0.1, -999.0
14-03-2023, 00:30:56,    298,    1.1,    4.9,   0.00,   0.00,  988.6,    0.1, -999.0
14-03-2023, 00:31:06,    317,    1.6,    4.9,   0.00,   0.00,  988.7,    0.0, -999.0
14-03-2023, 00:31:16,    317,    0.5,    4.9,   0.00,   0.00,  988.6,    0.1, -999.0
14-03-2023, 00:31:26,    322,    0.7,    4.9,   0.00,   0.00,  988.6,    0.1, -999.0
14-03-2023, 00:31:36,    296,    1.3,    4.9,   0.00,   0.00,  988.7,    0.1, -999.0
14-03-2023, 00:31:46,    296,    0.5,    4.9,   0.00,   0.00,  988.6,    0.0, -999.0
14-03-2023, 00:31:56,    312,    2.0,    4.9,   0.00,   0.00,  988.7,    0.0, -999.0
14-03-2023, 00:32:06,    299,    2.7,    4.9,   0.00,   0.00,  988.7,    0.0, -999.0
14-03-2023, 00:32:16,    330,    2.5,    4.9,   0.00,   0.00,  988.7,    0.1, -999.0
14-03-2023, 00:32:26,    320,    1.1,    4.9,   0.00,   0.00,  988.7,    0.1, -999.0
14-03-2023, 00:32:36,    295,    3.1,    4.9,   0.00,   0.00,  988.7,    0.0, -999.0
14-03-2023, 00:32:46,    324,    3.2,    4.7,   0.00,   0.00,  988.7,    0.0, -999.0
14-03-2023, 00:32:56,    322,    2.9,    5.0,   0.00,   0.00,  988.7,    0.0, -999.0
14-03-2023, 00:33:06,    352,    4.5,    4.9,   0.00,   0.00,  988.7,    0.0, -999.0
14-03-2023, 00:33:16,    325,    3.9,    4.9,   0.00,   0.00,  988.7,    0.1, -999.0
14-03-2023, 00:33:26,    314,    4.9,    4.9,   0.00,   0.00,  988.7,    0.0, -999.0
14-03-2023, 00:33:36,    309,    4.1,    4.9,   0.00,   0.00,  988.8,    0.0, -999.0
14-03-2023, 00:33:46,    322,    2.3,    4.9,   0.00,   0.00,  988.7,    0.1, -999.0
14-03-2023, 00:33:56,    304,    0.9,    5.0,   0.00,   0.00,  988.7,    0.1, -999.0
14-03-2023, 00:34:06,    300,    1.6,    5.0,   0.00,   0.00,  988.7,    0.0, -999.0
14-03-2023, 00:34:16,    301,    1.4,    4.9,   0.00,   0.00,  988.8,    0.2, -999.0
14-03-2023, 00:34:26,    298,    1.9,    4.9,   0.00,   0.00,  988.8,    0.0, -999.0
14-03-2023, 00:34:36,    315,    2.0,    5.0,   0.00,   0.00,  988.8,    0.1, -999.0
14-03-2023, 00:34:46,    321,    2.3,    5.0,   0.00,   0.00,  988.8,    0.1, -999.0
14-03-2023, 00:34:56,    286,    1.7,    5.0,   0.00,   0.00,  988.7,    0.0, -999.0
14-03-2023, 00:35:06,    283,    2.5,    5.0,   0.00,   0.00,  988.8,    0.0, -999.0
14-03-2023, 00:35:16,    287,    2.7,    5.0,   0.00,   0.00,  988.7,    0.0, -999.0
14-03-2023, 00:35:26,    305,    1.3,    4.9,   0.00,   0.00,  988.8,    0.0, -999.0
14-03-2023, 00:35:36,    308,    0.5,    4.9,   0.00,   0.00,  988.7,    0.2, -999.0
14-03-2023, 00:35:46,    329,    3.5,    5.0,   0.00,   0.00,  988.7,    0.0, -999.0
14-03-2023, 00:35:56,    349,    2.9,    5.0,   0.00,   0.00,  988.8,    0.0, -999.0
14-03-2023, 00:36:06,    276,    3.1,    4.9,   0.00,   0.00,  988.8,    0.0, -999.0
14-03-2023, 00:36:16,    305,    2.0,    5.0,   0.00,   0.00,  988.8,    0.0, -999.0
14-03-2023, 00:36:26,    310,    2.6,    5.0,   0.00,   0.00,  988.8,    0.0, -999.0
14-03-2023, 00:36:35,    294,    0.5,    4.9,   0.00,   0.00,  988.8,    0.0, -999.0
14-03-2023, 00:36:46,    294,    0.1,    4.9,   0.00,   0.00,  988.7,    0.0, -999.0
14-03-2023, 00:36:56,    309,    2.9,    5.0,   0.00,   0.00,  988.8,    0.1, -999.0
14-03-2023, 00:37:06,    281,    4.3,    5.1,   0.00,   0.00,  988.9,    0.2, -999.0
14-03-2023, 00:37:16,    319,    3.1,    4.9,   0.00,   0.00,  988.9,    0.0, -999.0
14-03-2023, 00:37:26,    315,    2.9,    5.0,   0.00,   0.00,  988.8,    0.0, -999.0
14-03-2023, 00:37:36,    299,    2.2,    5.0,   0.00,   0.00,  988.9,    0.0, -999.0
14-03-2023, 00:37:45,    331,    2.7,    4.9,   0.00,   0.00,  988.9,    0.0, -999.0
14-03-2023, 00:37:56,    322,    2.0,    4.9,   0.00,   0.00,  988.9,    0.0, -999.0
14-03-2023, 00:38:06,    308,    2.9,    5.0,   0.00,   0.00,  988.9,    0.0, -999.0
14-03-2023, 00:38:15,    319,    2.0,    5.0,   0.00,   0.00,  988.9,    0.1, -999.0
14-03-2023, 00:38:25,    301,    2.8,    5.0,   0.00,   0.00,  988.9,    0.0, -999.0
14-03-2023, 00:38:36,    321,    2.3,    5.1,   0.00,   0.00,  988.9,    0.0, -999.0
14-03-2023, 00:38:46,    295,    2.9,    5.0,   0.00,   0.00,  988.9,    0.0, -999.0
14-03-2023, 00:38:55,    302,    3.0,    4.9,   0.00,   0.00,  988.9,    0.1, -999.0
14-03-2023, 00:39:05,    323,    3.0,    4.9,   0.00,   0.00,  988.9,    0.1, -999.0
14-03-2023, 00:39:16,    330,    3.0,    5.0,   0.00,   0.00,  988.9,    0.0, -999.0
14-03-2023, 00:39:25,    257,    1.6,    5.1,   0.00,   0.00,  988.9,    0.1, -999.0
14-03-2023, 00:39:35,    257,    1.0,    5.0,   0.00,   0.00,  988.8,    0.0, -999.0
14-03-2023, 00:39:46,    263,    0.8,    5.0,   0.00,   0.00,  988.8,    0.0, -999.0
14-03-2023, 00:39:55,    264,    0.6,    4.9,   0.00,   0.00,  988.8,    0.0, -999.0
14-03-2023, 00:40:05,    265,    0.2,    4.9,   0.00,   0.00,  988.8,    0.0, -999.0
14-03-2023, 00:40:15,    295,    1.1,    5.1,   0.00,   0.00,  988.9,    0.0, -999.0
14-03-2023, 00:40:26,    313,    2.9,    5.1,   0.00,   0.00,  988.9,    0.1, -999.0
14-03-2023, 00:40:35,    313,    0.9,    5.0,   0.00,   0.00,  988.9,    0.2, -999.0
14-03-2023, 00:40:45,    338,    2.0,    5.0,   0.00,   0.00,  988.9,    0.1, -999.0
14-03-2023, 00:40:55,    283,    3.3,    5.0,   0.00,   0.00,  988.9,    0.0, -999.0
14-03-2023, 00:41:05,    305,    2.4,    5.0,   0.00,   0.00,  988.9,    0.2, -999.0
14-03-2023, 00:41:15,    315,    3.1,    5.0,   0.00,   0.00,  988.9,    0.0, -999.0
14-03-2023, 00:41:25,    302,    3.6,    5.0,   0.00,   0.00,  988.9,    0.0, -999.0
14-03-2023, 00:41:35,    292,    1.8,    5.0,   0.00,   0.00,  988.9,    0.0, -999.0
14-03-2023, 00:41:45,    302,    1.0,    5.0,   0.00,   0.00,  988.9,    0.0, -999.0
14-03-2023, 00:41:55,    328,    3.5,    4.9,   0.00,   0.00,  988.9,    0.1, -999.0
14-03-2023, 00:42:05,    313,    3.9,    5.0,   0.00,   0.00,  989.0,    0.0, -999.0
14-03-2023, 00:42:15,    275,    1.8,    5.0,   0.00,   0.00,  989.0,    0.1, -999.0
14-03-2023, 00:42:25,    273,    0.4,    5.0,   0.00,   0.00,  988.9,    0.1, -999.0
14-03-2023, 00:42:35,    291,    0.7,    4.9,   0.00,   0.00,  988.9,    0.1, -999.0
14-03-2023, 00:42:45,    298,    3.5,    5.0,   0.00,   0.00,  989.0,    0.1, -999.0
14-03-2023, 00:42:55,    311,    2.3,    5.0,   0.00,   0.00,  989.1,    0.1, -999.0
14-03-2023, 00:43:05,    304,    0.8,    5.0,   0.00,   0.00,  989.0,    0.1, -999.0
14-03-2023, 00:43:15,    314,    1.5,    5.0,   0.00,   0.00,  989.1,    0.0, -999.0
14-03-2023, 00:43:25,    325,    3.9,    5.0,   0.00,   0.00,  989.1,    0.1, -999.0
14-03-2023, 00:43:35,    323,    6.0,    5.0,   0.00,   0.00,  989.0,    0.0, -999.0
14-03-2023, 00:43:45,    327,    5.0,    5.0,   0.00,   0.00,  989.1,    0.0, -999.0
14-03-2023, 00:43:55,    309,    3.7,    5.0,   0.00,   0.00,  989.1,    0.0, -999.0
14-03-2023, 00:44:05,    315,    3.4,    5.0,   0.00,   0.00,  989.1,    0.1, -999.0
14-03-2023, 00:44:15,    300,    3.0,    5.0,   0.00,   0.00,  989.1,    0.0, -999.0
14-03-2023, 00:44:25,    316,    1.5,    5.0,   0.00,   0.00,  989.1,    0.0, -999.0
14-03-2023, 00:44:35,    256,    4.3,    5.0,   0.00,   0.00,  989.0,    0.0, -999.0
14-03-2023, 00:44:45,    302,    3.1,    5.0,   0.00,   0.00,  989.1,    0.1, -999.0
14-03-2023, 00:44:55,    320,    5.2,    5.0,   0.00,   0.00,  989.1,    0.0, -999.0
14-03-2023, 00:45:05,    304,    4.6,    5.0,   0.00,   0.00,  989.1,    0.1, -999.0
14-03-2023, 00:45:15,    315,    5.2,    5.0,   0.00,   0.00,  989.1,   65.1, -999.0
14-03-2023, 00:45:25,    340,    4.3,    5.0,   0.00,   0.00,  989.1,   99.0, -999.0
14-03-2023, 00:45:35,    318,    3.5,    5.1,   0.00,   0.00,  989.1,   99.0, -999.0
14-03-2023, 00:45:45,    308,    5.8,    5.1,   0.00,   0.00,  989.1,   99.0, -999.0
14-03-2023, 00:45:55,    314,    4.1,    5.0,   0.00,   0.00,  989.1,   99.0, -999.0
14-03-2023, 00:46:05,    314,    3.4,    5.0,   0.00,   0.00,  989.1,   99.0, -999.0
14-03-2023, 00:46:15,    313,    4.6,    5.1,   0.00,   0.00,  989.1,   98.9, -999.0
14-03-2023, 00:46:25,    309,    6.9,    5.0,   0.00,   0.00,  989.1,   99.0, -999.0
14-03-2023, 00:46:35,    299,    5.0,    5.0,   0.00,   0.00,  989.1,   99.0, -999.0
14-03-2023, 00:46:45,    336,    3.7,    5.1,   0.00,   0.00,  989.1,   99.0, -999.0
14-03-2023, 00:46:55,    300,    4.7,    5.0,   0.00,   0.00,  989.1,   99.0, -999.0